Date String (YYYY-MM-DD hh:mm:ss) UTC,Instrument flags,absolute air pressure of the measurement (hPa),sample flow rate (lpm),inlet stack bypass flow (lpm),air temperature of the measurement (°C),ambient temperature measured by the external sensor (°C),aerosol sample conditioner tube jacket temperature (°C),OPC LED temperature (°C),internal box temperature (°C),relative humidity of the measurement (%),span deviation,mass concentration of particles derived from Lorenz-Mie calculation of OPC scattering (μg/m³),mass concentration of particles derived from Lorenz-Mie calculation of OPC scattering (μg/m³),mass concentration of particles derived from Lorenz-Mie calculation of OPC scattering (μg/m³)
DateTimeUTC,F1_M11,P_M11,Q1_M11,Q2_M11,T1_M11,T2_M11,T3_M11,T4_M11,T5_M11,U1_M11,ZSPAN_M11,X0_M11,X2_M11,X1_M11
2023-07-26 16:00:00,SystemResetWarning,0835.1,5.01,000.00,028.8,025.6,000.0,037.1,030.2,29.6,0000.0,0010.01,0004.00,0003.22
2023-07-26 16:01:00,SystemResetWarning,0835.1,5.01,000.00,028.8,026.0,000.0,037.1,030.3,29.7,0000.0,0009.83,0003.98,0003.22
2023-07-26 16:02:00,SystemResetWarning,0835.1,5.00,000.00,028.8,026.4,000.0,037.2,030.4,29.1,0000.0,0010.51,0004.00,0003.23
2023-07-26 16:03:00,SystemResetWarning,0835.1,4.99,000.00,028.9,026.8,000.0,037.2,030.4,30.0,0000.0,0009.77,0004.05,0003.24
2023-07-26 16:04:00,SystemResetWarning,0835.1,4.99,000.00,028.9,027.1,000.0,037.2,030.5,30.4,0000.0,0009.85,0004.11,0003.26
2023-07-26 16:05:00,SystemResetWarning,0835.2,4.99,000.00,028.9,027.4,000.0,037.3,030.6,31.9,0000.0,0009.92,0004.14,0003.28
2023-07-26 16:06:00,SystemResetWarning,0835.2,4.99,000.00,029.0,027.0,000.0,037.2,030.6,31.0,0000.0,0010.41,0004.17,0003.30
2023-07-26 16:07:00,SystemResetWarning,0835.2,5.01,000.00,028.9,025.6,000.0,037.1,030.3,30.6,0000.0,0010.77,0004.22,0003.32
2023-07-26 16:08:00,SystemResetWarning,0835.1,5.00,000.00,028.8,025.3,000.0,037.0,030.3,29.9,0000.0,0010.46,0004.21,0003.33
2023-07-26 16:09:00,SystemResetWarning,0835.1,5.02,000.00,028.8,025.7,000.0,037.1,030.2,30.5,0000.0,0010.24,0004.21,0003.33
2023-07-26 16:10:00,SystemResetWarning,0835.2,5.00,000.00,028.8,026.0,000.0,037.1,030.2,30.6,0000.0,0010.09,0004.19,0003.34
2023-07-26 16:11:00,SystemResetWarning,0835.1,5.00,000.00,028.8,026.4,000.0,037.1,030.3,32.3,0000.0,0010.20,0004.22,0003.35
2023-07-26 16:12:00,SystemResetWarning,0835.1,5.01,000.00,028.8,026.8,000.0,037.2,030.4,30.7,0000.0,0011.05,0004.25,0003.36
2023-07-26 16:13:00,SystemResetWarning,0835.1,4.99,000.00,028.9,027.2,000.0,037.2,030.5,31.9,0000.0,0011.35,0004.31,0003.38
2023-07-26 16:14:00,SystemResetWarning,0835.0,4.99,000.00,028.9,027.3,000.0,037.2,030.6,36.2,0000.0,0011.48,0004.34,0003.40
2023-07-26 16:15:00,SystemResetWarning,0835.0,5.03,000.00,029.1,026.3,000.0,037.1,030.6,33.5,0000.0,0011.65,0004.36,0003.42
2023-07-26 16:16:00,SystemResetWarning,0835.0,4.97,000.00,029.2,025.3,000.0,037.0,030.4,33.5,0000.0,0011.94,0004.41,0003.45
2023-07-26 16:17:00,SystemResetWarning,0835.0,5.03,000.00,029.2,025.4,000.0,037.0,030.3,33.1,0000.0,0012.02,0004.42,0003.47
2023-07-26 16:18:00,SystemResetWarning,0835.0,4.98,000.00,029.2,025.8,000.0,037.1,030.3,32.6,0000.0,0011.72,0004.46,0003.48
2023-07-26 16:19:00,SystemResetWarning,0834.9,4.99,000.00,029.2,026.2,000.0,037.2,030.3,32.7,0000.0,0012.69,0004.53,0003.50
2023-07-26 16:20:00,SystemResetWarning,0835.0,5.00,000.00,029.2,026.6,000.0,037.2,030.4,31.0,0000.0,0013.33,0004.57,0003.53
2023-07-26 16:21:00,SystemResetWarning,0835.0,5.01,000.00,029.3,027.0,000.0,037.3,030.5,32.2,0000.0,0014.53,0004.65,0003.55
2023-07-26 16:22:00,SystemResetWarning,0835.0,5.00,000.00,029.3,027.3,000.0,037.4,030.6,31.6,0000.0,0015.09,0004.67,0003.57
2023-07-26 16:23:00,SystemResetWarning,0835.0,4.98,000.00,029.4,027.0,000.0,037.3,030.7,30.9,0000.0,0014.28,0004.67,0003.59
2023-07-26 16:24:00,SystemResetWarning,0835.1,5.00,000.00,029.3,025.7,000.0,037.3,030.4,30.6,0000.0,0013.69,0004.66,0003.59
2023-07-26 16:25:00,SystemResetWarning,0835.1,5.00,000.00,029.3,025.2,000.0,037.2,030.3,30.5,0000.0,0013.52,0004.67,0003.60
2023-07-26 16:26:00,SystemResetWarning,0835.2,5.01,000.00,029.2,025.5,000.0,037.2,030.2,31.0,0000.0,0013.83,0004.67,0003.61
2023-07-26 16:27:00,SystemResetWarning,0835.1,5.00,000.00,029.2,025.9,000.0,037.3,030.2,31.1,0000.0,0013.86,0004.71,0003.62
2023-07-26 16:28:00,SystemResetWarning,0835.1,5.00,000.00,029.2,026.3,000.0,037.3,030.3,30.9,0000.0,0013.71,0004.76,0003.65
2023-07-26 16:29:00,SystemResetWarning,0835.1,5.00,000.00,029.2,026.7,000.0,037.4,030.4,30.1,0000.0,0013.61,0004.77,0003.67
2023-07-26 16:30:00,SystemResetWarning,0835.2,5.00,000.00,029.2,027.1,000.0,037.4,030.5,29.0,0000.0,0012.71,0004.75,0003.70
2023-07-26 16:31:00,SystemResetWarning,0835.2,4.99,000.00,029.3,027.3,000.0,037.4,030.6,28.6,0000.0,0012.07,0004.77,0003.74
2023-07-26 16:32:00,SystemResetWarning,0835.2,4.98,000.00,029.3,026.3,000.0,037.3,030.5,27.5,0000.0,0011.64,0004.77,0003.77
2023-07-26 16:33:00,SystemResetWarning,0835.1,5.01,000.00,029.2,025.2,000.0,037.3,030.3,29.8,0000.0,0010.60,0004.77,0003.79
2023-07-26 16:34:00,SystemResetWarning,0835.1,5.02,000.00,029.1,025.2,000.0,037.2,030.2,28.7,0000.0,0010.82,0004.84,0003.83
2023-07-26 16:35:00,SystemResetWarning,0835.1,5.00,000.00,029.1,025.6,000.0,037.3,030.2,29.7,0000.0,0011.09,0004.87,0003.86
2023-07-26 16:36:00,SystemResetWarning,0835.1,5.00,000.00,029.0,026.0,000.0,037.3,030.2,31.4,0000.0,0011.06,0004.88,0003.86
2023-07-26 16:37:00,SystemResetWarning,0835.1,5.00,000.00,029.0,026.4,000.0,037.3,030.3,31.8,0000.0,0010.82,0004.88,0003.88
2023-07-26 16:38:00,SystemResetWarning,0835.1,5.01,000.00,029.1,026.8,000.0,037.4,030.4,30.0,0000.0,0010.66,0004.86,0003.89
2023-07-26 16:39:00,SystemResetWarning,0835.1,4.99,000.00,029.1,027.1,000.0,037.4,030.5,31.9,0000.0,0010.61,0004.82,0003.89
2023-07-26 16:40:00,SystemResetWarning,0835.1,4.99,000.00,029.1,027.4,000.0,037.4,030.6,30.2,0000.0,0011.06,0004.81,0003.88
2023-07-26 16:41:00,SystemResetWarning,0835.1,5.00,000.00,029.1,026.4,000.0,037.3,030.5,31.5,0000.0,0011.92,0004.82,0003.86
2023-07-26 16:42:00,SystemResetWarning,0835.0,5.01,000.00,029.1,025.2,000.0,037.2,030.3,30.8,0000.0,0011.94,0004.79,0003.82
2023-07-26 16:43:00,SystemResetWarning,0835.0,5.00,000.00,029.0,025.2,000.0,037.1,030.2,28.8,0000.0,0012.74,0004.73,0003.80
2023-07-26 16:44:00,SystemResetWarning,0835.0,5.00,000.00,029.0,025.5,000.0,037.2,030.1,29.5,0000.0,0012.30,0004.65,0003.76
2023-07-26 16:45:00,SystemResetWarning,0834.9,5.00,000.00,028.9,026.0,000.0,037.2,030.2,29.6,0000.0,0011.81,0004.54,0003.71
2023-07-26 16:46:00,SystemResetWarning,0835.0,5.00,000.00,028.9,026.4,000.0,037.3,030.3,29.8,0000.0,0011.72,0004.44,0003.66
2023-07-26 16:47:00,SystemResetWarning,0834.9,5.01,000.00,029.0,026.8,000.0,037.3,030.4,29.9,0000.0,0011.59,0004.40,0003.63
2023-07-26 16:48:00,SystemResetWarning,0834.8,4.99,000.00,029.0,027.1,000.0,037.3,030.5,30.0,0000.0,0011.29,0004.35,0003.59
2023-07-26 16:49:00,SystemResetWarning,0834.9,4.99,000.00,029.0,027.4,000.0,037.3,030.6,29.9,0000.0,0011.03,0004.29,0003.55
2023-07-26 16:50:00,SystemResetWarning,0834.9,4.99,000.00,029.1,026.6,000.0,037.2,030.5,30.4,0000.0,0011.29,0004.27,0003.52
2023-07-26 16:51:00,SystemResetWarning,0835.4,5.00,000.00,029.0,025.4,000.0,037.1,030.3,31.5,0000.0,0011.08,0004.26,0003.50
2023-07-26 16:52:00,SystemResetWarning,0835.4,5.01,000.00,028.9,025.3,000.0,037.1,030.2,30.8,0000.0,0010.18,0004.22,0003.48
2023-07-26 16:53:00,SystemResetWarning,0835.4,5.01,000.00,028.9,025.6,000.0,037.1,030.1,29.3,0000.0,0010.11,0004.20,0003.49
2023-07-26 16:54:00,SystemResetWarning,0835.3,5.00,000.00,028.9,026.0,000.0,037.2,030.2,30.3,0000.0,0009.34,0004.23,0003.48
2023-07-26 16:55:00,SystemResetWarning,0835.0,5.00,000.00,028.9,026.5,000.0,037.2,030.3,31.0,0000.0,0009.73,0004.28,0003.49
2023-07-26 16:56:00,SystemResetWarning,0834.9,5.00,000.00,028.9,026.8,000.0,037.2,030.4,29.5,0000.0,0010.13,0004.32,0003.51
2023-07-26 16:57:00,SystemResetWarning,0835.0,5.00,000.00,028.9,027.1,000.0,037.2,030.5,30.8,0000.0,0009.89,0004.37,0003.54
2023-07-26 16:58:00,SystemResetWarning,0835.0,4.99,000.00,028.9,026.4,000.0,037.1,030.4,28.9,0000.0,0009.92,0004.44,0003.57
2023-07-26 16:59:00,SystemResetWarning,0835.0,5.02,000.00,028.9,025.2,000.0,037.0,030.3,28.4,0000.0,0010.24,0004.53,0003.59
